Location: Kampernieuwstad
(52.5135°N, 5.8742°E)
Time: 20:36:40
(UTC+00:00)

Meteor 2-10 Rocket - Pass Details

Date: 15 May 2026
Orbit: 733 x 881 km, 81.2° (Epoch: 6 June)

Event Time Altitude Azimuth Distance (km) Brightness Sun altitude
Rises 23:21:05 0° 348° (NNW) 3,345 8.4 -18.4°
Reaches altitude 10° 23:23:30 10° 353° (N) 2,432 7.4 -18.4°
Maximum altitude 23:28:56 57° 72° (ENE) 989 4.1 -18.4°
Enters shadow 23:32:14 25° 143° (SE) 1,680 4.8 -18.4°
